EWG3ET LEPA-EDLW

Flight info

Callsign EWG3ET
Flight time 1h 50m
Altitude 34000
Route MEROS N853 LUMAS DCT MAXIR DCT LUSOL DCT BODRU DCT OKTET DCT IRMAR DCT KINES DCT VANAS DCT MOBLO DCT UBIMA DCT GILIR DCT PENDU DCT IXILU DCT EPL/N0447F320 DCT ROUSY DCT DIK/N0449F350 T856 DEPOK/N0406F230 T856 AFNAF M170 ADEMI ADEMI2A
Aircraft A320/M-SDE3FGHIRWY/LB1

Departure

Time 2026-05-06 14:06
Airport Palma de Mallorca Airport (LEPA)

Arrival

Time 2026-05-06 15:56
Airport Dortmund Airport (EDLW)
Time Latitude Longitude Altitude Speed Heading
2026-05-06 13:32 39.55065 2.73580 36 ft 0 kts 164°
2026-05-06 13:55 39.55086 2.73573 38 ft 4 kts 172°
2026-05-06 13:55 39.55109 2.73568 38 ft 3 kts 163°
2026-05-06 13:55 39.55132 2.73554 38 ft 4 kts 130°
2026-05-06 13:56 39.55141 2.73526 38 ft 4 kts 79°
2026-05-06 13:56 39.55132 2.73495 38 ft 3 kts 59°
2026-05-06 13:56 39.55118 2.73466 38 ft 3 kts 59°
2026-05-06 13:56 39.55116 2.73462 38 ft 0 kts 59°
2026-05-06 13:59 39.55134 2.73503 38 ft 11 kts 62°
2026-05-06 13:59 39.55178 2.73609 38 ft 12 kts 92°
2026-05-06 13:59 39.55179 2.73715 38 ft 12 kts 94°
2026-05-06 13:59 39.55179 2.73824 38 ft 12 kts 86°
2026-05-06 14:00 39.55118 2.73896 38 ft 13 kts 149°
2026-05-06 14:00 39.55038 2.73960 36 ft 14 kts 148°
2026-05-06 14:00 39.54950 2.74028 36 ft 15 kts 149°
2026-05-06 14:00 39.54857 2.74101 38 ft 16 kts 149°
2026-05-06 14:01 39.54782 2.74106 37 ft 11 kts 222°
2026-05-06 14:01 39.54743 2.74030 36 ft 9 kts 238°
2026-05-06 14:01 39.54707 2.73952 38 ft 13 kts 238°
2026-05-06 14:01 39.54646 2.73809 38 ft 18 kts 242°
2026-05-06 14:02 39.54592 2.73698 38 ft 16 kts 238°
2026-05-06 14:02 39.54536 2.73566 37 ft 15 kts 236°
2026-05-06 14:02 39.54467 2.73432 38 ft 21 kts 237°
2026-05-06 14:02 39.54385 2.73271 38 ft 19 kts 237°
2026-05-06 14:03 39.54326 2.73148 38 ft 11 kts 238°
2026-05-06 14:03 39.54302 2.73097 38 ft 0 kts 238°
2026-05-06 14:03 39.54300 2.73091 38 ft 5 kts 239°
2026-05-06 14:03 39.54263 2.73016 38 ft 10 kts 238°
2026-05-06 14:04 39.54229 2.72944 36 ft 9 kts 239°
2026-05-06 14:04 39.54185 2.72914 38 ft 6 kts 168°
2026-05-06 14:04 39.54151 2.72986 38 ft 15 kts 94°
2026-05-06 14:04 39.54151 2.73119 38 ft 14 kts 90°
2026-05-06 14:05 39.54164 2.73248 36 ft 15 kts 64°
2026-05-06 14:05 39.54235 2.73402 38 ft 35 kts 59°
2026-05-06 14:05 39.54490 2.73941 38 ft 102 kts 58°
2026-05-06 14:05 39.54961 2.74936 39 ft 154 kts 58°
2026-05-06 14:06 39.55552 2.76167 542 ft 158 kts 58°
2026-05-06 14:06 39.56126 2.77390 1139 ft 161 kts 59°
2026-05-06 14:06 39.56725 2.78715 1474 ft 180 kts 60°
2026-05-06 14:06 39.57371 2.80185 1882 ft 197 kts 61°
2026-05-06 14:07 39.58083 2.81796 2367 ft 214 kts 61°
2026-05-06 14:07 39.58849 2.83493 2995 ft 222 kts 59°
2026-05-06 14:07 39.59631 2.85199 3686 ft 223 kts 59°
2026-05-06 14:07 39.60440 2.86957 4418 ft 225 kts 59°
2026-05-06 14:08 39.61240 2.88694 5044 ft 230 kts 59°
2026-05-06 14:08 39.62068 2.90493 5661 ft 234 kts 59°
2026-05-06 14:08 39.62910 2.92369 6079 ft 251 kts 60°
2026-05-06 14:08 39.63800 2.94414 6445 ft 270 kts 60°
2026-05-06 14:09 39.64744 2.96602 6983 ft 283 kts 60°
2026-05-06 14:09 39.65708 2.98846 7708 ft 287 kts 60°
2026-05-06 14:09 39.66690 3.01128 8460 ft 292 kts 60°
2026-05-06 14:09 39.67690 3.03446 9208 ft 296 kts 60°
2026-05-06 14:10 39.68706 3.05796 9939 ft 301 kts 60°
2026-05-06 14:10 39.69757 3.08223 10305 ft 319 kts 60°
2026-05-06 14:10 39.70887 3.10833 10493 ft 342 kts 60°
2026-05-06 14:10 39.72092 3.13623 10680 ft 363 kts 60°
2026-05-06 14:11 39.73340 3.16521 11194 ft 371 kts 60°
2026-05-06 14:11 39.74610 3.19480 11801 ft 377 kts 60°
2026-05-06 14:11 39.75895 3.22473 12415 ft 382 kts 60°
2026-05-06 14:11 39.77205 3.25462 13002 ft 388 kts 56°
2026-05-06 14:12 39.78859 3.28254 13573 ft 392 kts 47°
2026-05-06 14:12 39.80664 3.30946 14129 ft 397 kts 47°
2026-05-06 14:12 39.82489 3.33667 14665 ft 401 kts 47°
2026-05-06 14:12 39.84330 3.36423 15197 ft 406 kts 47°
2026-05-06 14:13 39.86189 3.39210 15736 ft 410 kts 47°
2026-05-06 14:13 39.88066 3.42028 16267 ft 414 kts 47°
2026-05-06 14:13 39.89961 3.44874 16798 ft 418 kts 47°
2026-05-06 14:13 39.91870 3.47751 17328 ft 422 kts 48°
2026-05-06 14:14 39.93796 3.50663 17863 ft 426 kts 48°
2026-05-06 14:14 39.95741 3.53608 18370 ft 430 kts 48°
2026-05-06 14:14 39.97702 3.56575 18827 ft 434 kts 48°
2026-05-06 14:14 39.99688 3.59577 19275 ft 438 kts 48°
2026-05-06 14:15 40.01689 3.62604 19722 ft 442 kts 48°
2026-05-06 14:15 40.03707 3.65662 20172 ft 446 kts 48°
2026-05-06 14:15 40.05740 3.68746 20614 ft 450 kts 48°
2026-05-06 14:15 40.07786 3.71856 21047 ft 453 kts 48°
2026-05-06 14:16 40.09846 3.74986 21468 ft 456 kts 48°
2026-05-06 14:16 40.11926 3.78143 21876 ft 460 kts 48°
2026-05-06 14:16 40.14019 3.81326 22280 ft 463 kts 48°
2026-05-06 14:16 40.16122 3.84534 22682 ft 466 kts 48°
2026-05-06 14:17 40.18238 3.87769 23064 ft 470 kts 48°
2026-05-06 14:17 40.20372 3.91027 23444 ft 473 kts 48°
2026-05-06 14:17 40.22521 3.94305 23760 ft 476 kts 48°
2026-05-06 14:17 40.24653 3.97564 24065 ft 479 kts 48°
2026-05-06 14:18 40.26819 4.00887 24373 ft 481 kts 49°
2026-05-06 14:18 40.29021 4.04280 24688 ft 484 kts 49°
2026-05-06 14:18 40.31181 4.07605 24989 ft 486 kts 48°
2026-05-06 14:18 40.33378 4.10981 25281 ft 488 kts 48°
2026-05-06 14:19 40.35589 4.14374 25577 ft 490 kts 48°
2026-05-06 14:19 40.37808 4.17784 25861 ft 493 kts 48°
2026-05-06 14:19 40.40033 4.21214 26161 ft 495 kts 49°
2026-05-06 14:19 40.42269 4.24667 26418 ft 498 kts 49°
2026-05-06 14:20 40.44515 4.28139 26673 ft 500 kts 48°
2026-05-06 14:20 40.46947 4.31397 26926 ft 500 kts 39°
2026-05-06 14:20 40.49715 4.34163 27183 ft 499 kts 30°
2026-05-06 14:20 40.52756 4.36350 27430 ft 497 kts 20°
2026-05-06 14:21 40.55983 4.37914 27673 ft 493 kts 11°
2026-05-06 14:21 40.59319 4.38876 27914 ft 491 kts
2026-05-06 14:21 40.62691 4.39675 28149 ft 492 kts
2026-05-06 14:21 40.66065 4.40481 28378 ft 494 kts
2026-05-06 14:22 40.69455 4.41297 28598 ft 496 kts
2026-05-06 14:22 40.72856 4.42119 28812 ft 497 kts
2026-05-06 14:22 40.76264 4.42940 29051 ft 498 kts
2026-05-06 14:22 40.79672 4.43759 29355 ft 497 kts
2026-05-06 14:23 40.83073 4.44578 29676 ft 497 kts
2026-05-06 14:23 40.86475 4.45398 29951 ft 497 kts
2026-05-06 14:23 40.89877 4.46218 30194 ft 497 kts
2026-05-06 14:23 40.93279 4.47043 30437 ft 497 kts
2026-05-06 14:24 40.96686 4.47874 30686 ft 497 kts
2026-05-06 14:24 41.00082 4.48705 30936 ft 496 kts
2026-05-06 14:24 41.03478 4.49532 31189 ft 496 kts
2026-05-06 14:24 41.06831 4.50347 31470 ft 496 kts
2026-05-06 14:25 41.10265 4.51178 31681 ft 496 kts
2026-05-06 14:25 41.13659 4.51998 31920 ft 496 kts
2026-05-06 14:25 41.17052 4.52817 32167 ft 496 kts
2026-05-06 14:25 41.20400 4.53629 32413 ft 495 kts
2026-05-06 14:26 41.23787 4.54456 32664 ft 495 kts
2026-05-06 14:26 41.27169 4.55285 32944 ft 494 kts
2026-05-06 14:26 41.30552 4.56118 33176 ft 494 kts
2026-05-06 14:26 41.33931 4.56948 33414 ft 494 kts
2026-05-06 14:27 41.37309 4.57775 33636 ft 494 kts
2026-05-06 14:27 41.40686 4.58605 33862 ft 494 kts
2026-05-06 14:27 41.47459 4.60272 34001 ft 495 kts
2026-05-06 14:28 41.54254 4.61950 33966 ft 496 kts
2026-05-06 14:28 41.61048 4.63630 33966 ft 496 kts
2026-05-06 14:29 41.67800 4.65304 33964 ft 496 kts
2026-05-06 14:29 41.74488 4.67876 33957 ft 506 kts 20°
2026-05-06 14:30 41.80660 4.72555 33960 ft 511 kts 28°
2026-05-06 14:30 41.86765 4.77474 33954 ft 512 kts 27°
2026-05-06 14:31 41.92882 4.82391 33974 ft 512 kts 27°
2026-05-06 14:31 41.98959 4.87292 33965 ft 512 kts 27°
2026-05-06 14:32 42.05069 4.92232 33963 ft 513 kts 28°
2026-05-06 14:32 42.11178 4.97199 33965 ft 513 kts 28°
2026-05-06 14:33 42.17300 5.02182 33954 ft 514 kts 28°
2026-05-06 14:33 42.23427 5.07175 33950 ft 515 kts 28°
2026-05-06 14:34 42.29556 5.12180 33974 ft 515 kts 28°
2026-05-06 14:34 42.35688 5.17196 33960 ft 515 kts 28°
2026-05-06 14:35 42.41816 5.22228 33950 ft 516 kts 28°
2026-05-06 14:35 42.47956 5.27276 33947 ft 516 kts 28°
2026-05-06 14:36 42.54094 5.32328 33973 ft 516 kts 28°
2026-05-06 14:36 42.60229 5.37391 33933 ft 516 kts 29°
2026-05-06 14:37 42.66330 5.42446 33932 ft 517 kts 29°
2026-05-06 14:37 42.72473 5.47556 33935 ft 518 kts 29°
2026-05-06 14:38 42.78616 5.52676 33936 ft 518 kts 29°
2026-05-06 14:38 42.84757 5.57796 33936 ft 518 kts 29°
2026-05-06 14:39 42.90890 5.62930 33960 ft 518 kts 29°
2026-05-06 14:39 42.97029 5.68073 33950 ft 518 kts 29°
2026-05-06 14:40 43.03166 5.73224 33907 ft 518 kts 29°
2026-05-06 14:40 43.09302 5.78395 33938 ft 518 kts 29°
2026-05-06 14:41 43.14404 5.82698 33926 ft 518 kts 29°
2026-05-06 14:41 43.20549 5.87881 33916 ft 518 kts 29°
2026-05-06 14:42 43.27669 5.93929 33926 ft 518 kts 29°
2026-05-06 14:42 43.32805 5.98305 33931 ft 518 kts 30°
2026-05-06 14:43 43.39191 6.02749 33897 ft 512 kts 14°
2026-05-06 14:43 43.46018 6.04716 33879 ft 500 kts 358°
2026-05-06 14:44 43.52956 6.05388 33896 ft 500 kts 358°
2026-05-06 14:45 43.63358 6.06443 33888 ft 499 kts 358°
2026-05-06 14:45 43.70288 6.07151 33898 ft 499 kts 359°
2026-05-06 14:46 43.77192 6.08529 33891 ft 508 kts 12°
2026-05-06 14:46 43.83750 6.12338 33862 ft 514 kts 24°
2026-05-06 14:47 43.90168 6.16728 33887 ft 515 kts 24°
2026-05-06 14:47 43.96616 6.21119 33884 ft 515 kts 23°
2026-05-06 14:48 44.03009 6.25480 33881 ft 515 kts 24°
2026-05-06 14:48 44.09447 6.29891 33914 ft 515 kts 24°
2026-05-06 14:49 44.15863 6.34323 33917 ft 515 kts 24°
2026-05-06 14:49 44.22279 6.38761 33912 ft 515 kts 24°
2026-05-06 14:50 44.28696 6.43188 33936 ft 514 kts 24°
2026-05-06 14:50 44.35107 6.47630 33888 ft 514 kts 24°
2026-05-06 14:51 44.41522 6.52087 33888 ft 516 kts 24°
2026-05-06 14:51 44.47952 6.56570 33907 ft 516 kts 24°
2026-05-06 14:52 44.54366 6.61043 33918 ft 515 kts 24°
2026-05-06 14:52 44.60778 6.65526 33912 ft 514 kts 24°
2026-05-06 14:53 44.67179 6.70012 33890 ft 514 kts 24°
2026-05-06 14:53 44.73577 6.74505 33885 ft 514 kts 24°
2026-05-06 14:54 44.80241 6.77866 33901 ft 506 kts
2026-05-06 14:54 44.87153 6.78571 33893 ft 493 kts 352°
2026-05-06 14:55 44.93956 6.78109 33881 ft 492 kts 352°
2026-05-06 14:55 45.00791 6.77679 33897 ft 492 kts 352°
2026-05-06 14:56 45.07628 6.77238 33901 ft 492 kts 352°
2026-05-06 14:56 45.14461 6.76781 33900 ft 492 kts 352°
2026-05-06 14:57 45.21295 6.76313 33933 ft 492 kts 352°
2026-05-06 14:57 45.28137 6.75856 33919 ft 492 kts 353°
2026-05-06 14:58 45.34981 6.75401 33924 ft 493 kts 353°
2026-05-06 14:58 45.41840 6.74947 33930 ft 494 kts 353°
2026-05-06 14:59 45.48713 6.74484 33927 ft 494 kts 353°
2026-05-06 14:59 45.55594 6.74016 33924 ft 495 kts 353°
2026-05-06 15:00 45.62433 6.73540 33940 ft 495 kts 353°
2026-05-06 15:00 45.69315 6.73064 33940 ft 495 kts 353°
2026-05-06 15:01 45.76205 6.72592 33952 ft 496 kts 353°
2026-05-06 15:01 45.83098 6.72118 33965 ft 495 kts 353°
2026-05-06 15:02 45.89984 6.71645 33959 ft 495 kts 353°
2026-05-06 15:02 45.96833 6.71184 33968 ft 494 kts 353°
2026-05-06 15:03 46.03692 6.70722 33970 ft 494 kts 354°
2026-05-06 15:03 46.10537 6.70199 33960 ft 491 kts 349°
2026-05-06 15:04 46.17096 6.67962 33951 ft 481 kts 336°
2026-05-06 15:04 46.23445 6.64869 33946 ft 481 kts 336°
2026-05-06 15:05 46.29777 6.61785 33942 ft 481 kts 336°
2026-05-06 15:05 46.36074 6.58717 33931 ft 481 kts 336°
2026-05-06 15:06 46.42409 6.55624 33928 ft 481 kts 337°
2026-05-06 15:06 46.48751 6.52504 33924 ft 481 kts 336°
2026-05-06 15:07 46.55100 6.49375 33918 ft 481 kts 337°
2026-05-06 15:07 46.61449 6.46252 33946 ft 481 kts 338°
2026-05-06 15:08 46.67786 6.43135 33946 ft 479 kts 338°
2026-05-06 15:08 46.74048 6.40042 33945 ft 478 kts 338°
2026-05-06 15:09 46.80332 6.36910 33944 ft 477 kts 338°
2026-05-06 15:09 46.86601 6.33773 33944 ft 476 kts 338°
2026-05-06 15:10 46.92871 6.30638 33940 ft 475 kts 338°
2026-05-06 15:10 46.99130 6.27523 33933 ft 475 kts 338°
2026-05-06 15:11 47.05382 6.24394 33935 ft 474 kts 336°
2026-05-06 15:11 47.11320 6.20323 33921 ft 471 kts 330°
2026-05-06 15:12 47.17200 6.16082 33930 ft 471 kts 331°
2026-05-06 15:12 47.23091 6.11844 33931 ft 471 kts 331°
2026-05-06 15:13 47.28966 6.07588 33919 ft 471 kts 331°
2026-05-06 15:13 47.35081 6.04133 33904 ft 474 kts 346°
2026-05-06 15:14 47.41622 6.03401 33901 ft 477 kts 360°
2026-05-06 15:14 47.48263 6.03582 33890 ft 477 kts 360°
2026-05-06 15:15 47.54906 6.03722 33891 ft 477 kts 359°
2026-05-06 15:15 47.61549 6.03850 33885 ft 477 kts 359°
2026-05-06 15:16 47.68198 6.03990 33886 ft 478 kts 360°
2026-05-06 15:16 47.74854 6.04155 33885 ft 477 kts
2026-05-06 15:17 47.81496 6.04358 33880 ft 477 kts
2026-05-06 15:17 47.88129 6.04570 33887 ft 477 kts
2026-05-06 15:18 47.94708 6.04778 33887 ft 476 kts
2026-05-06 15:18 48.01378 6.04984 33882 ft 477 kts
2026-05-06 15:19 48.07966 6.05186 33886 ft 476 kts
2026-05-06 15:19 48.14586 6.05392 33888 ft 475 kts
2026-05-06 15:20 48.21195 6.05599 33879 ft 474 kts
2026-05-06 15:20 48.27797 6.05814 33878 ft 474 kts
2026-05-06 15:21 48.34391 6.06029 33883 ft 474 kts
2026-05-06 15:21 48.40975 6.06323 33883 ft 473 kts
2026-05-06 15:22 48.47558 6.06665 33877 ft 473 kts
2026-05-06 15:22 48.54143 6.06997 33881 ft 473 kts
2026-05-06 15:23 48.60718 6.07313 33897 ft 473 kts
2026-05-06 15:23 48.67249 6.07611 33865 ft 472 kts
2026-05-06 15:24 48.73803 6.07923 33862 ft 471 kts
2026-05-06 15:24 48.80360 6.08239 33860 ft 471 kts
2026-05-06 15:25 48.86908 6.08555 33858 ft 471 kts
2026-05-06 15:25 48.93457 6.08873 33856 ft 471 kts
2026-05-06 15:26 49.00007 6.09194 33856 ft 471 kts
2026-05-06 15:26 49.06559 6.09507 33855 ft 471 kts
2026-05-06 15:27 49.13110 6.09818 33857 ft 471 kts
2026-05-06 15:27 49.19656 6.10125 33853 ft 471 kts
2026-05-06 15:28 49.26224 6.10442 33859 ft 471 kts
2026-05-06 15:28 49.32736 6.10773 33855 ft 471 kts
2026-05-06 15:29 49.39291 6.11094 33851 ft 471 kts
2026-05-06 15:29 49.45849 6.11418 33849 ft 472 kts
2026-05-06 15:30 49.52414 6.11710 33846 ft 472 kts
2026-05-06 15:30 49.58976 6.11945 33842 ft 472 kts
2026-05-06 15:31 49.64442 6.12141 33845 ft 472 kts
2026-05-06 15:31 49.71006 6.12389 33847 ft 472 kts
2026-05-06 15:32 49.80852 6.12761 33856 ft 472 kts
2026-05-06 15:32 49.87356 6.14161 33863 ft 472 kts 17°
2026-05-06 15:33 49.93390 6.18073 33873 ft 471 kts 24°
2026-05-06 15:33 49.99357 6.22300 33849 ft 471 kts 25°
2026-05-06 15:34 50.05248 6.26603 33849 ft 471 kts 25°
2026-05-06 15:34 50.11161 6.30980 33850 ft 470 kts 25°
2026-05-06 15:35 50.17070 6.35337 33848 ft 469 kts 25°
2026-05-06 15:35 50.22983 6.39690 33846 ft 469 kts 25°
2026-05-06 15:36 50.28875 6.44050 33851 ft 469 kts 25°
2026-05-06 15:36 50.34762 6.48426 33832 ft 469 kts 26°
2026-05-06 15:37 50.40306 6.53821 33823 ft 469 kts 33°
2026-05-06 15:37 50.45738 6.59485 33832 ft 470 kts 33°
2026-05-06 15:38 50.51186 6.65168 33843 ft 470 kts 33°
2026-05-06 15:38 50.56629 6.70854 33846 ft 470 kts 33°
2026-05-06 15:39 50.62068 6.76552 33572 ft 469 kts 33°
2026-05-06 15:39 50.64789 6.79408 32880 ft 470 kts 33°
2026-05-06 15:39 50.67613 6.82076 31779 ft 474 kts 26°
2026-05-06 15:40 50.70667 6.84062 30812 ft 474 kts 17°
2026-05-06 15:40 50.73821 6.85289 29700 ft 475 kts
2026-05-06 15:40 50.77106 6.85730 28514 ft 474 kts 360°
2026-05-06 15:40 50.80383 6.85501 27791 ft 466 kts 356°
2026-05-06 15:41 50.83600 6.85234 27114 ft 459 kts 356°
2026-05-06 15:41 50.86778 6.84995 26404 ft 454 kts 356°
2026-05-06 15:41 50.89923 6.84985 25698 ft 450 kts
2026-05-06 15:41 50.93003 6.85781 24946 ft 449 kts 14°
2026-05-06 15:42 50.95944 6.87446 24162 ft 448 kts 25°
2026-05-06 15:42 50.98633 6.89914 23473 ft 446 kts 36°
2026-05-06 15:42 51.00975 6.93087 22725 ft 442 kts 46°
2026-05-06 15:42 51.02921 6.96829 22088 ft 437 kts 53°
2026-05-06 15:43 51.04739 7.00677 21463 ft 433 kts 53°
2026-05-06 15:43 51.06652 7.04249 21143 ft 413 kts 42°
2026-05-06 15:43 51.08886 7.06875 21015 ft 387 kts 31°
2026-05-06 15:43 51.11105 7.09074 20806 ft 365 kts 31°
2026-05-06 15:44 51.13231 7.11162 20296 ft 355 kts 31°
2026-05-06 15:44 51.15309 7.13194 19684 ft 348 kts 30°
2026-05-06 15:44 51.17364 7.15205 18965 ft 345 kts 31°
2026-05-06 15:44 51.19405 7.17204 18284 ft 343 kts 30°
2026-05-06 15:45 51.21505 7.19020 17261 ft 345 kts 15°
2026-05-06 15:45 51.23806 7.19702 16803 ft 331 kts
2026-05-06 15:45 51.26075 7.20020 16180 ft 323 kts 355°
2026-05-06 15:45 51.28218 7.19267 15590 ft 312 kts 330°
2026-05-06 15:46 51.29912 7.17247 14957 ft 301 kts 306°
2026-05-06 15:46 51.30867 7.14392 14356 ft 295 kts 283°
2026-05-06 15:46 51.30950 7.11156 13751 ft 292 kts 258°
2026-05-06 15:46 51.30138 7.08222 13097 ft 292 kts 233°
2026-05-06 15:47 51.28593 7.06149 12418 ft 293 kts 207°
2026-05-06 15:47 51.26624 7.05347 11733 ft 296 kts 182°
2026-05-06 15:47 51.24598 7.05849 11071 ft 296 kts 159°
2026-05-06 15:47 51.22860 7.07554 10444 ft 293 kts 135°
2026-05-06 15:48 51.21684 7.10154 9824 ft 289 kts 112°
2026-05-06 15:48 51.21228 7.13211 9152 ft 283 kts 89°
2026-05-06 15:48 51.21508 7.16272 8437 ft 280 kts 70°
2026-05-06 15:48 51.22482 7.18978 7633 ft 284 kts 47°
2026-05-06 15:49 51.24010 7.20930 6965 ft 281 kts 31°
2026-05-06 15:49 51.25654 7.22591 6337 ft 278 kts 31°
2026-05-06 15:49 51.27261 7.24230 5742 ft 272 kts 31°
2026-05-06 15:49 51.28839 7.25846 5144 ft 267 kts 31°
2026-05-06 15:50 51.30385 7.27432 4555 ft 261 kts 31°
2026-05-06 15:50 51.31898 7.28985 3924 ft 256 kts 31°
2026-05-06 15:50 51.33385 7.30509 3291 ft 252 kts 31°
2026-05-06 15:50 51.34856 7.32015 3017 ft 245 kts 31°
2026-05-06 15:51 51.36234 7.33425 2886 ft 233 kts 32°
2026-05-06 15:51 51.37565 7.34793 2764 ft 222 kts 32°
2026-05-06 15:51 51.38843 7.36111 2574 ft 216 kts 32°
2026-05-06 15:51 51.40073 7.37382 2483 ft 204 kts 32°
2026-05-06 15:52 51.41228 7.38574 2501 ft 191 kts 32°
2026-05-06 15:52 51.42310 7.39690 2505 ft 181 kts 31°
2026-05-06 15:52 51.43354 7.40763 2490 ft 177 kts 31°
2026-05-06 15:52 51.44390 7.41828 2488 ft 176 kts 31°
2026-05-06 15:53 51.45338 7.43065 2488 ft 177 kts 47°
2026-05-06 15:53 51.46006 7.44729 2491 ft 176 kts 58°
2026-05-06 15:53 51.46603 7.46415 2420 ft 171 kts 58°
2026-05-06 15:53 51.47187 7.48063 2241 ft 167 kts 58°
2026-05-06 15:54 51.47728 7.49596 2050 ft 150 kts 57°
2026-05-06 15:54 51.48224 7.50998 1867 ft 140 kts 57°
2026-05-06 15:54 51.48700 7.52342 1685 ft 138 kts 57°
2026-05-06 15:54 51.49170 7.53673 1481 ft 136 kts 57°
2026-05-06 15:55 51.49638 7.54998 1287 ft 136 kts 58°
2026-05-06 15:55 51.50108 7.56324 1073 ft 137 kts 58°
2026-05-06 15:55 51.50577 7.57651 862 ft 137 kts 58°
2026-05-06 15:55 51.51039 7.58969 689 ft 138 kts 59°
2026-05-06 15:56 51.51504 7.60292 499 ft 136 kts 59°
2026-05-06 15:56 51.51946 7.61542 411 ft 102 kts 60°
2026-05-06 15:56 51.52169 7.62177 416 ft 34 kts 60°
2026-05-06 15:56 51.52175 7.62322 415 ft 9 kts 129°
2026-05-06 15:57 51.52128 7.62369 411 ft 8 kts 151°
2026-05-06 15:57 51.52075 7.62403 413 ft 9 kts 182°
2026-05-06 15:57 51.52035 7.62339 413 ft 8 kts 240°
2026-05-06 15:57 51.52013 7.62276 409 ft 5 kts 241°
2026-05-06 15:58 51.51979 7.62181 416 ft 11 kts 240°
2026-05-06 15:58 51.51944 7.62082 414 ft 10 kts 240°
2026-05-06 15:58 51.51906 7.61971 412 ft 15 kts 240°
2026-05-06 15:58 51.51845 7.61799 417 ft 20 kts 241°
2026-05-06 15:59 51.51779 7.61613 427 ft 19 kts 240°
2026-05-06 15:59 51.51719 7.61440 425 ft 9 kts 240°
2026-05-06 15:59 51.51698 7.61390 421 ft 9 kts 234°
2026-05-06 15:59 51.51657 7.61314 423 ft 9 kts 212°
2026-05-06 16:00 51.51609 7.61256 425 ft 9 kts 242°
2026-05-06 16:00 51.51604 7.61241 434 ft 0 kts 240°
2026-05-06 16:03 51.51575 7.61150 427 ft 16 kts 247°